EUTELSAT 21B

Last updated on Sun Jul 06 2025 00:02:44 GMT+0000 (Coordinated Universal Time)

1 38992U 12062B 25186.56906139 .00000146 00000+0 00000+0 0 9992 2 38992 0.0664 12.9996 0002712 97.6596 39.5862 1.00271991 46350
UTC large
Height (km)
Speed (km/s)
/
Latitude / Longitude
Inclination (degrees)
Orbital Period (minutes)
Azimuth
Elevation
Range (km)
Doppler Factor

Next 0 passes for location: London (51.5072 / 0.1276)

Sorry there are no passes over London.